Regional Weather Roundup
Issued by NWS Pendleton, OR

Home | Current Version | Previous Version | Text Only | Print | Product List | Glossary On
Versions: 1 2 3 4 5 6 7 8 9 10 11 12 13 14 15 16 17 18 19 20 21 22 23 24 25 26 27 28 29 30 31 32 33 34 35 36 37 38 39 40 41 42 43 44 45 46 47 48 49 50
000
ASUS46 KPDT 271825
RWRPDT
PENDLETON REGIONAL WEATHER ROUNDUP
NATIONAL WEATHER SERVICE PENDLETON OREGON
1100 AM PDT THU APR 27 2017

NOTE: FAIR INDICATES FEW OR NO CLOUDS BELOW 12,000 FEET WITH NO
SIGNIFICANT WEATHER AND/OR OBSTRUCTIONS TO VISIBILITY.

# INDICATES UNOFFICIAL STATION AND DATA

WAZ520-271910-
EAST SLOPES OF WASHINGTON CASCADES

CITY            SKY/WX      TMP DP  RH  WIND    PRES   REMARKS
#CLE ELUM HS    N/A         42  32  67  NW7     29.93S
#CLE ELUM LAKE  N/A         40  32  73  W3      30.00R
#GLENWOOD       N/A         49  33  54  S6      30.01S
#MANASTASH CYN  N/A         32  32  100 CALM    29.89R
#NELSON 3SW     N/A         42  32  67  W1      30.20S
#NILE           N/A         47  30  51  W3      29.23S
#TEANAWAY 4NE   N/A         46  36  68  W3      N/A
#TROUT LAKE 1NE N/A         45  34  65  W9      30.05S
#TROUT LAKE 1E  N/A         46  34  63  W2      30.06S
$$

WAZ521-271910-
SIMCOE HIGHLANDS

CITY            SKY/WX      TMP DP  RH  WIND    PRES   REMARKS
#BICKLETON HS   N/A         46  26  45  W31     29.59F WCI 36
#CENTERVILLE 1SWN/A         44  36  73  W20     30.01S WCI 36
#GOLDENDALE 1NE N/A         48  24  39  SW7     N/A
#GOLDENDALE 4W  N/A         47  11  23  SW22    30.05R WCI 39
#GOODNOE HILLS  N/A         50  35  56  SW35    N/A
#LYLE 6NE       N/A         45  40  82  SW13G25 30.03F WCI 39
#PITT 4SE       N/A         42  37  82  W15G24  30.08R WCI 34
$$

WAZ026-271910-
KITTITAS VALLEY

CITY            SKY/WX      TMP DP  RH  WIND    PRES   REMARKS
ELLENSBURG AP   SUNNY       50  32  50  NW29G40 29.94R
6HR MIN TEMP:   39; 6HR MAX TEMP:   50;

#ELLENSBURG CWU N/A         48  32  54  NW18    29.90R WCI 41
#ELLENSBURG 3NE N/A         46  33  60  N15G30  28.02R WCI 40
#ELLENSBURG 1E  N/A         47  N/A N/A NW2     N/A
#ELLENSBURG 13S N/A         52  26  36  NE12    N/A
#KITTITAS 4N    N/A         48  34  58  NW18    29.94R WCI 41
#KITTITAS 3S    N/A         49  34  56  NW18G29 29.95R WCI 43
#THORP 6N       N/A         42  32  67  W22G50  29.98R WCI 33
$$

WAZ027-271910-
YAKIMA VALLEY

CITY            SKY/WX      TMP DP  RH  WIND    PRES   REMARKS
SUNNYSIDE AP    SUNNY       54  28  36  W8      29.97S
YAKIMA AIRPORT  MOCLDY      56  27  33  W15     29.96S
6HR MIN TEMP:   35; 6HR MAX TEMP:   59;

YAKIMA-VAGABOND MOSUNNY     54  25  32  N17G24  29.93S
6HR MIN TEMP:   29; 6HR MAX TEMP:   54;

#DONALD 2NE     N/A         60   3  10  SE5     28.80S
#GRANDVIEW      N/A         54  22  28  NW7     29.98F
#MABTON         N/A         55  30  38  NW10    29.97R
#MOXEE 2E       N/A         54   0  11  W5      29.89F
#NACHES 2SW     N/A         52  30  43  N6      29.94S
#TERRACE HTS    N/A         57  31  37  NW7     29.93S
#TOPPENISH      N/A         54  28  36  CALM    29.88S
#WEST VALLEY    N/A         54  26  34  W7      29.94S
#W YAKIMA       N/A         53  29  39  W5      29.96S
#WHITE SWAN 5E  N/A         58  30  34  S2      29.97S
#WILEY CITY 3W  N/A         54  23  30  CALM    29.93S
$$

WAZ028-271910-
LOWER COLUMBIA BASIN...WASHINGTON

CITY            SKY/WX      TMP DP  RH  WIND    PRES   REMARKS
PASCO           MOSUNNY     58  27  30  W13     29.98S
6HR MIN TEMP:   42; 6HR MAX TEMP:   58;

PROSSER AWOS    N/A         55  28  35  W12     30.00S
RICHLAND AWOS   PTCLDY      60  29  31  SW13    29.98S
#BENTON CITY    N/A         56  32  40  SW7     29.88S
#CONNELL 5N     N/A         54  34  47  W5      29.93S
#CONNELL 5NW    N/A         55  33  43  W13     29.88S
#ELTOPIA 6NW    N/A         54  34  47  W13G25  28.92S
#KAHLOTUS       N/A         50  32  50  NW22    29.94S
#KENNEWICK 3S   N/A         55  35  47  W5      29.98S
#PATERSON       N/A         52  36  54  NW16G29 29.98F
#SAGEMOOR 2W    N/A         54  33  45  SW8     29.83S
#TOUCHET 2S     N/A         53  40  61  SW13    29.99R
#WEST PASCO     N/A         60  35  39  W5      29.97F
$$

WAZ029-271910-
FOOTHILLS OF THE BLUES...WASHINGTON

CITY            SKY/WX      TMP DP  RH  WIND    PRES   REMARKS
WALLA WALLA AP  CLOUDY      50  37  61  W13     30.00S
6HR MIN TEMP:   43; 6HR MAX TEMP:   50;

#CLYDE 6NW      N/A         49  34  56  SW16G24 29.96F WCI 43
#DAYTON SCHOOL  N/A         47  31  53  SW7     30.00S
#LOWDEN 2SE     N/A         53  38  57  W16G25  29.96S
#PLEASANT VIEW 1N/A         49  37  63  S12     30.01S WCI 44
#PRESCOTT       N/A         51  40  66  SW7     29.99S
#WHITMAN COLLEGEN/A         48  35  60  W8      30.06S
#WAITSBURG 5S   N/A         45  38  76  SW7     30.10S
#WAITSBURG 8N   N/A         48  N/A N/A S18     29.74R WCI 41
#WALLA WALLA 5E N/A         49  38  66  SW8     N/A
#WALLA WALLA U  N/A         52  37  56  W2      30.01F
#WHITMAN MISSIONN/A         52  38  59  W15     30.01S
$$

WAZ030-271910-
BLUE MOUNTAINS...WASHINGTON

CITY            SKY/WX      TMP DP  RH  WIND    PRES   REMARKS
#DIXIE 5SE      N/A         38  33  82  SW12    29.88R WCI 30
$$

ORZ009-041-WAZ024-271910-
COLUMBIA RIVER GORGE

CITY            SKY/WX      TMP DP  RH  WIND    PRES   REMARKS
THE DALLES AP   PTCLDY      55  41  59  NW14    30.06F
6HR MIN TEMP:   44; 6HR MAX TEMP:   55; 6HR PCP:  TRACE;

#ARLINGTON AIRPON/A         52  37  56  W20     30.02F
#CELILO DOT     N/A         54  34  47  SW10    N/A
#LYLE           N/A         50  41  71  W22     30.09S
#MOSIER 1S      N/A         50  28  42  CALM    30.03F
#MURDOCK        N/A         51  41  68  NW20    30.04S
#RUFUS DOT      N/A         53  37  54  W21     N/A
#SMITHVILLE     N/A         52  41  66  W20G28  30.02F

$$

ORZ510-271910-
NORTH CENTRAL OREGON

CITY            SKY/WX      TMP DP  RH  WIND    PRES   REMARKS
#ANTELOPE       N/A         43  34  70  SW13    29.95S WCI 36
#CHENOWITH 1W   N/A         43  38  82  W24     N/A    WCI 34
#COW CYN RST AREN/A         42  30  62  SW7     N/A
#DUFUR          N/A         51  36  56  W12     30.01S
#DUFUR 9E       N/A         44  34  68  NW24G33 30.11S WCI 35
#GRASS VALLEY 1SN/A         44  35  70  W7      30.16S
#KENT DOT       N/A         45  26  47  N16     N/A    WCI 38
#MAUPIN SCHOOL  N/A         52  37  56  W8      30.09F
#MORO SCHOOL    N/A         47  40  76  W12     30.11S WCI 42
#SHANIKO 5WSW   N/A         41  25  53  N16     N/A    WCI 33
#SHANIKO 4NW    N/A         41  30  65  W17G28  29.99F WCI 33
#TYGH VALLEY 2NEN/A         50  37  61  N10     30.04F
#WAPANITIA AIRPON/A         46  36  68  W9      30.09S
#WASCO DOT      N/A         50  33  52  W16     N/A
#WASCO 5NE      N/A         50  37  61  W16G26  30.03S
$$

ORZ511-271910-
CENTRAL OREGON

CITY            SKY/WX      TMP DP  RH  WIND    PRES   REMARKS
BEND AIRPORT    MOCLDY      45  25  45  CALM    30.05S
MADRAS AIRPORT  LGT RAIN    43  30  60  SW5     30.08S
PRINEVILLE AP   PTCLDY      43  30  60  W8      30.05S
REDMOND AIRPORT MOCLDY      44  25  47  NW12    30.05S WCI 38
6HR MIN TEMP:   37; 6HR MAX TEMP:   46; 6HR PCP:  TRACE;

#ASHWOOD SCHOOL N/A         44  31  60  CALM    30.00F
#BEND 1SW       N/A         45  30  55  NW3     N/A
#BEND-AWBREY    N/A         44  29  55  S1      30.09R
#BEND-KIM LN    N/A         44  28  53  W10     30.01S
#CULVER         N/A         44  30  58  S7      30.00F
#CULVER 8W      N/A         49  30  48  SW3     30.06R
#LAKE BILLY CHINN/A         45  N/A N/A W7      30.14S
#MADRAS 4S      N/A         44   4  19  SW13    30.14R WCI 38
#POWELL BUTTE   N/A         41  26  55  NW8     30.00S
#PRINEVILLE     N/A         45  32  60  NW6     30.17R
#PRINEVILLE 3N  N/A         44  32  62  W8      30.08R
#WARM SPRINGS   N/A         48  33  56  CALM    30.03S

$$


ORZ509-271910-
EAST SLOPES OF OREGON CASCADES

CITY            SKY/WX      TMP DP  RH  WIND    PRES   REMARKS
SISTERS AWOS    N/A         43  28  55  W21G36  30.01S WCI 34
#BLUE BOX PASS  N/A         33  N/A N/A S1      N/A
#CAMP SHERMAN   N/A         44  33  65  S2      30.14F
#LA PINE 4NW    N/A         38  27  64  N1      30.14S
#LAVA BUTTE DOT N/A         38  22  52  SW3     N/A
#SISTERS 3N     N/A         47  30  51  SW3     30.06S
#SUNRIVER       N/A         39  32  76  S1      30.10R
#TUMALO 3W      N/A         43  26  51  SW5     29.96F
#WANOGA BUTTE D N/A         28  22  78  SW3     N/A

$$

ORZ044-271910-
LOWER COLUMBIA BASIN...OREGON

CITY            SKY/WX      TMP DP  RH  WIND    PRES   REMARKS
HERMISTON       SUNNY       54  33  45  W21G28  30.00S
6HR MIN TEMP:   43; 6HR MAX TEMP:   55;

#BOARDMAN SCHOOLN/A         54  34  47  S15G28  30.00S
#BOARDMAN 8SW   N/A         54  37  52  SW16    30.01S
#ECHO 8SW       N/A         53  34  48  W7      30.01F
#I-84 EX 198 DOTN/A         49  34  56  E22     N/A    WCI 42
#IONE SCHOOL    N/A         50  32  50  W17G31  30.04F
$$

ORZ507-271910-
NORTHERN FOOTHILLS OF THE BLUES

CITY            SKY/WX      TMP DP  RH  WIND    PRES   REMARKS
PENDLETON AIRPT CLOUDY      50  35  56  W23G31  29.99S
6HR MIN TEMP:   39; 6HR MAX TEMP:   50; 6HR PCP:  TRACE;

#ADAMS 3WNW     N/A         48  36  63  W15G25  30.01S WCI 42
#ATHENA         N/A         47  35  63  W10G26  30.05R
#CAYUSE         N/A         47  33  58  W15G26  30.01S WCI 41
#HELIX SCHOOL   N/A         47  35  63  W15G30  30.00F WCI 41
#HELIX 3N       N/A         48  34  58  W17G26  29.96S WCI 42
#HOLDMAN 5SE    N/A         50  34  54  W16G25  29.99S
#HOLDMAN 6E     N/A         47  34  60  SW13    29.82R WCI 41
#M-F FERNDALE   N/A         52  36  54  CALM    29.97S
#M-FREEWATER 5SEN/A         48  36  63  SW8     29.99S
#PENDLETON DNTN N/A         55  32  41  NW7     29.98S
#PDT AQUATIC CTRN/A         51  33  50  W15G25  30.02S
#PDT SUNRIDGE   N/A         51  33  50  W15G25  30.02S
#PENDLETON 7NW  N/A         52  38  59  W15G25  25.63S
#PILOT ROCK 1S  N/A         51  31  46  W6      30.01S
#PILOT ROCK     N/A         49  32  52  W9      30.02R
#TUTUILLA       N/A         51  34  52  W15G24  30.02S
#UMAPINE 2E     N/A         52  39  61  W10     29.97R
#WESTON SCHOOL  N/A         45  29  53  NW7     29.99F

$$

ORZ508-271910-
SOUTHERN FOOTHILLS OF THE BLUES

CITY            SKY/WX      TMP DP  RH  WIND    PRES   REMARKS
LEXINGTON       MOCLDY      52  32  46  W25G32  30.05S
#AJAX           N/A         45  28  51  S9      30.17R
#CONDON 5W      N/A         41  28  59  W14     29.97S WCI 33
#HEPPNER EOC    N/A         46  31  56  W17G28  29.97F WCI 39
#HEPPNER 4NE    N/A         43  31  62  NW15G25 30.03S WCI 36
#LEXINGTON 2SE  N/A         50  33  52  W17G26  30.00S
#MIKKALO        N/A         50  34  54  W15G25  30.12S
#OLEX 4N        N/A         49  37  63  W20G35  30.01S WCI 42
#RUGGS 5NE      N/A         43  29  57  W21G28  30.17R WCI 34
#RUGGS 2SW      N/A         44  32  62  NW15G24 30.07S WCI 37

$$

ORZ502-503-271910-
BLUE MOUNTAINS

CITY            SKY/WX      TMP DP  RH  WIND    PRES   REMARKS
MEACHAM         CLOUDY      37  26  64  W9      29.96R
6HR MIN TEMP:   32; 6HR MAX TEMP:   38; 6HR PCP:  0.05;

#BATTLE MTN DOT N/A         37  22  54  W2      N/A
#GREENHORN 9SW  N/A         39  28  64  W3      26.18S
#HARDMAN 10S    N/A         39  28  64  W3      30.18R
#LADD CYN SMT   N/A         40  27  59  W12     N/A    WCI 33
#LADD CREEK ODOTN/A         43  25  49  E2      N/A
#LONG CREEK HS  N/A         38  30  73  CALM    N/A
#N POWDER DOT   N/A         42  28  57  N12     N/A    WCI 35
#PIKES PEAK     N/A         35  29  78  N18     27.99S WCI 24
#TOLLGATE       N/A         28  27  96  SW6     29.78S
#TROY SCHOOL    N/A         49  33  54  NW1     29.83R
#UKIAH          N/A         40  27  59  NW20G26 29.96R WCI 30
#WESTON 4E      N/A         39  33  79  SW9     30.00R
$$

ORZ505-271910-
JOHN DAY BASIN

CITY            SKY/WX      TMP DP  RH  WIND    PRES   REMARKS
JOHN DAY        CLOUDY      42  27  55  W14     30.01S WCI 35
#ANTELOPE 9ESE  N/A         49  32  52  W10     N/A
#DAYVILLE SCHOOLN/A         46  22  38  N6      30.00F
#MITCHELL       N/A         43  31  62  N3      30.19R
#MITCHELL 8NW   N/A         41  27  57  N3      30.08S
#MONUMENT HS    N/A         47  26  44  N7      29.98F
#MT. VERNON 5SE N/A         41  29  62  CALM    29.96S
#SPRAY SCHOOL   N/A         49  N/A N/A CALM    N/A
$$

ORZ506-271910-
OCHOCO AND JOHN DAY HIGHLANDS

CITY            SKY/WX      TMP DP  RH  WIND    PRES   REMARKS
#HORSE RIDGE DO N/A         40  21  46  NW8     N/A
#PAULINA ODOT   N/A         41  24  50  SW8     N/A
#PINE MTN OBS   N/A         30  22  72  W3      N/A
#PRAIRIE CITY   N/A         42  31  65  W5      30.16S
#SENECA 9NW     N/A         35  27  72  N1      30.03S
$$

ORZ049-271910-
GRANDE RONDE VALLEY

CITY            SKY/WX      TMP DP  RH  WIND    PRES   REMARKS
LA GRANDE       MOSUNNY     46  30  53  NW16    29.98R WCI 39
#COVE           N/A         38  34  85  N8      30.03S
#COVE SCHOOL    N/A         39  34  82  CALM    30.01S
#COVE 6NW       N/A         39  34  82  W10     30.04R
#ELGIN 3N       N/A         43  30  60  CALM    29.96R
#ELGIN 1E       N/A         42  32  67  N3      N/A
#IMBLER SCHOOL  N/A         38  33  82  CALM    29.96R
#ISLAND CITY 4N N/A         47  44  89  SW1     30.15F
#UNION 1S       N/A         41  32  70  N2      30.04R
$$

ORZ050-271910-
WALLOWA COUNTY

CITY            SKY/WX      TMP DP  RH  WIND    PRES   REMARKS
JOSEPH AIRPORT  MOCLDY      39  25  57  N12G25  29.92F WCI 32
#IMNAHA SCHOOL  N/A         49  30  48  N3      29.96R
#IMNAHA 10S     N/A         44  29  55  SE1     29.94S
#JOSEPH 3N      N/A         37  24  59  N9      29.96R
#JOSEPH 3W      N/A         38  22  52  NE3     29.77R
#LOSTINE        N/A         43  30  60  CALM    29.80R
#LOSTINE 3SE    N/A         40  27  59  W5      29.99R
#MT HOWARD 8000 N/A         23  20  88  NW1     29.79R
#PROMISE 1S     N/A         37  28  70  W13     30.09F WCI 29
#WALLOWA SCHOOL N/A         41  27  57  NW3     29.93F



$$



USA.gov is the U.S. government's official web portal to all federal, state and local government web resources and services.